Regional Weather Roundup
Issued by NWS Albany, NY

Home | Current Version | Previous Version | Text Only | Print | Product List | Glossary On
Versions: 1 2 3 4 5 6 7 8 9 10 11 12 13 14 15 16 17 18 19 20 21 22 23 24 25 26 27
000
ASUS41 KALY 280710
RWRALY

NEW YORK STATE HOURLY WEATHER ROUNDUP
NATIONAL WEATHER SERVICE ALBANY NY
300 AM EDT THU APR 28 2016

NOTE: "FAIR" INDICATES FEW OR NO CLOUDS BELOW 12,000 FEET WITH NO
SIGNIFICANT WEATHER AND/OR NO OBSTRUCTIONS TO VISIBILITY.

NYZ032-033-038>043-046>054-057>066-NYZ062>081-082-084-280800-
EAST


CITY           SKY/WX    TMP DP  RH WIND       PRES   REMARKS
ALBANY         PTCLDY    40  18  41 NW7       29.96S
GLENS FALLS    CLOUDY    30  21  69 VRB3      29.97R
POUGHKEEPSIE   CLOUDY    41  28  60 CALM      29.94R
NEWBURGH       CLEAR    N/A N/A N/A E12       29.95R
MONTGOMERY     CLOUDY    42  29  59 CALM      29.94R
WHITE PLAINS   CLOUDY    45  30  55 N7        29.93R
ISLIP          PTCLDY    48  44  86 N8        29.92R
NEW YORK CITY  PTCLDY    54  45  71 N5        29.92R
CENTRAL PARK   PTCLDY    51  43  74 VRB3      29.95R
$$

NYZ005>009-017-018-044>046-055-056-280800-
CENTRAL


CITY           SKY/WX    TMP DP  RH WIND       PRES   REMARKS
FULTON         CLEAR     35  29  78 N3        30.01R
SYRACUSE       CLOUDY    34  25  69 CALM      30.00R
ROME           CLOUDY    29  24  82 CALM      30.01S
ELMIRA         CLOUDY    32  25  75 CALM      29.98S
BINGHAMTON     PTCLDY    37  14  38 N9        29.95S WCI  30
MONTICELLO     PTCLDY    37  16  41 NW7       29.95S WCI  32
$$

NYZ026>034-041>043-087-280800-
NORTH


CITY           SKY/WX    TMP DP  RH WIND       PRES   REMARKS
WATERTOWN      CLOUDY    24  22  91 E3        30.02R
FORT DRUM      NOT AVBL
MASSENA        CLEAR     35  15  44 NW7       30.01S WCI  29
SARANAC LAKE   CLEAR     26  14  60 W5        29.92S WCI  20
PLATTSBURGH    CLEAR     28  16  60 SW3       29.98R
$$

NYZ001>004-010>016-019>021-085-280800-
WEST


CITY           SKY/WX    TMP DP  RH WIND       PRES   REMARKS
NIAGARA FALLS  CLOUDY    38  24  57 CALM      30.01R
BUFFALO        CLOUDY    39  19  44 E5        30.01S
DUNKIRK        CLOUDY    37  27  67 NE5       29.98F WCI  33
JAMESTOWN      CLOUDY    39  19  45 NE10      29.93S WCI  32
WELLSVILLE     CLOUDY    37  16  42 NE7       29.96F WCI  32
ROCHESTER      CLOUDY    36  23  59 CALM      30.02R
PENN YAN       CLOUDY    38  17  42 NW3       30.00S
$$

             KEY
       WCI = WIND CHILL INDEX
       VSB = VISIBILITY
       HX  = HEAT INDEX
$$




USA.gov is the U.S. government's official web portal to all federal, state and local government web resources and services.